Torna al catalogo

SPARTAN

AttivoScienzaPO
NORAD 48964·PAYLOAD·🇧🇬 Bulgaria

Lanciato Jun 30, 2021 da Cape Canaveral Space Force Station

Loading…

Prossimi Passaggi (prossime 24 ore)

TLE

AggiornatoSource: Space-Track

Epoca: Sep 13, 2026, 12:58 UTC

1 48964U 21059CP  26256.54062044  .00482381  11813-3  56158-3 0  9995
2 48964  97.6587 108.5303 0001839 237.0489 123.0617 16.08830937291972

Traccia SPARTAN in tempo reale con AllMySat

Download on the App Store